Theta_e
312 308 308 308 307 307 308 308 308 308 308 307 307 307 306 309 309 310 311 311 311 311 308 307 311 314 309 309 309 314 317 315 308 306 306 305 305 304 304 305 305 306 306 306 306 306 306
308 308 307 307 307 307 306 307 307 307 308 308 307 307 307 307 307 308 309 310 309 310 310 308 309 312 310 313 308 315 315 312 307 306 306 305 305 304 305 305 305 305 306 306 306 306 307
307 308 308 307 307 306 306 306 307 307 308 307 307 306 305 306 306 307 307 308 309 309 306 309 310 311 311 311 310 312 313 309 307 307 307 306 306 304 304 305 305 306 306 305 306 307 307
308 308 307 306 306 305 307 308 307 307 308 307 306 305 304 304 305 306 307 307 306 303 303 308 311 310 311 309 311 311 307 306 307 307 307 307 306 305 306 305 303 305 303 304 305 308 308
307 307 306 306 306 307 307 307 307 307 307 306 306 304 304 304 304 302 304 308 307 310 311 310 309 308 310 309 310 308 306 307 307 308 308 307 306 305 305 304 299 302 303 304 306 306 308
307 306 305 305 306 307 306 306 306 307 306 306 306 304 304 304 304 304 305 308 309 308 308 307 307 308 307 310 307 305 306 308 308 308 308 306 306 305 306 301 301 306 305 307 307 306 307
307 306 305 305 306 306 307 306 306 306 305 305 305 306 306 306 304 303 304 305 306 307 307 305 307 308 309 307 306 306 306 308 308 307 307 307 300 298 303 303 303 307 307 308 308 307 308
306 306 305 306 306 306 306 306 306 306 306 305 305 305 306 305 304 305 303 302 303 305 308 308 308 307 307 307 307 306 306 307 308 306 307 305 302 304 303 304 305 307 309 307 307 308 308
306 306 305 306 306 305 306 306 306 306 306 306 305 303 304 305 305 303 303 304 305 305 306 307 308 307 307 307 307 306 305 306 306 306 306 303 304 305 306 307 307 307 308 308 310 309 310
305 307 306 305 306 305 305 305 304 303 303 305 305 305 304 303 304 304 304 304 305 305 309 307 308 306 307 307 307 305 305 306 307 305 304 304 304 305 307 307 307 309 308 310 312 314 316
305 305 306 305 305 305 301 301 302 302 302 303 303 304 304 304 304 305 304 303 305 304 305 309 309 305 307 306 304 305 305 305 306 306 304 304 307 310 312 310 308 311 311 312 313 316 315
305 304 305 305 305 305 301 300 301 302 302 301 302 302 303 304 303 303 303 304 303 298 307 307 309 308 307 305 306 306 306 305 305 306 306 304 305 308 307 308 309 310 312 313 313 317 317
304 305 303 305 306 305 304 300 300 301 301 301 301 301 302 302 301 303 303 300 300 304 306 307 307 307 306 306 306 306 306 305 303 300 302 306 308 307 308 311 309 312 317 310 308 316 314
305 305 305 304 305 306 307 305 300 300 301 301 301 301 301 302 302 303 302 300 305 308 308 307 308 308 307 307 304 304 305 304 304 306 308 309 305 310 311 312 313 315 316 317 315 314 317
304 304 305 303 305 305 307 307 301 301 300 301 301 301 301 303 303 303 301 307 307 308 307 308 309 307 308 308 306 305 303 304 306 305 307 311 307 311 312 312 314 316 320 316 319 316 320
301 305 305 306 303 305 305 307 302 300 302 301 300 300 301 303 304 302 303 310 307 308 309 308 308 305 307 306 306 306 307 309 313 308 310 313 315 309 313 313 313 314 315 320 318 321 323
301 303 305 306 305 305 305 305 303 302 302 300 300 299 304 303 304 301 307 307 308 306 307 310 309 305 306 311 310 311 312 311 313 314 313 313 312 311 315 315 316 318 319 319 319 317 320
306 298 305 306 305 305 306 305 303 302 303 302 298 300 304 304 302 296 302 304 305 307 307 307 308 307 307 312 313 315 315 313 311 312 313 312 314 314 313 312 313 314 316 316 315 319 313
307 299 300 305 305 306 306 306 303 301 303 301 297 297 304 303 302 298 301 305 305 307 308 309 310 309 309 310 312 313 312 311 311 312 312 312 309 310 309 309 309 312 313 312 312 311 314
308 305 295 303 305 305 306 306 305 301 302 302 297 299 298 297 296 301 302 304 308 306 308 307 308 308 309 310 309 311 310 310 310 311 313 310 307 309 309 312 310 312 310 309 312 311 314
308 306 295 300 305 306 306 306 305 302 303 302 296 299 299 298 302 300 302 304 308 308 307 306 309 308 309 311 309 309 308 307 309 308 310 306 307 303 306 307 307 309 309 310 308 310 312
309 307 299 299 305 306 307 305 304 302 302 303 299 299 296 298 299 301 301 305 308 307 308 309 309 307 307 309 309 310 308 308 309 306 307 305 306 308 308 306 307 309 309 310 311 311 310
309 308 302 299 306 307 305 304 304 302 303 302 301 300 297 298 299 302 303 305 307 306 307 308 308 307 308 308 306 304 304 304 305 306 307 306 305 305 305 304 305 307 309 310 310 310 309
308 308 304 299 306 304 304 304 304 302 304 303 303 300 298 301 300 302 303 303 306 306 308 307 306 307 307 302 301 302 302 302 303 305 304 307 306 303 305 303 305 303 306 307 309 309 307
308 308 306 299 305 305 306 304 304 305 304 303 303 301 298 300 298 301 301 303 304 302 304 306 306 304 301 303 306 306 303 305 307 305 305 304 304 307 305 304 302 305 305 306 309 310 306
307 308 307 297 305 305 304 304 304 303 303 302 301 302 299 299 299 301 302 302 302 302 303 303 304 302 303 303 305 308 306 307 306 303 304 303 302 305 303 306 303 301 305 305 305 309 305
306 308 308 297 305 305 304 304 303 303 302 302 301 300 300 298 296 298 300 301 299 301 302 302 304 305 302 304 307 305 306 303 306 305 306 304 304 306 306 304 304 301 305 303 308 304 302
306 308 308 303 304 304 304 304 303 302 302 302 301 299 300 296 295 296 298 299 299 299 303 302 302 302 303 305 305 304 302 302 303 301 304 304 302 304 303 306 304 301 304 305 303 302 304
307 307 308 307 295 305 304 303 303 302 301 301 301 300 300 298 296 297 298 300 301 300 299 298 301 301 302 300 301 301 304 299 299 304 298 302 302 302 304 304 301 300 302 301 299 303 305
Wind_Speed
32 30 29 31 32 34 32 29 29 25 17 15 14 13 17 15 14 15 13 13 12 8 6 6 6 24 17 7 5 5 20 18 14 11 8 5 5 3 4 3 2 1 3 5 5 9 6
29 29 30 30 31 33 33 31 31 29 19 14 12 9 9 12 12 12 13 10 10 8 6 5 3 24 6 7 6 9 20 15 13 12 8 5 4 4 5 3 2 1 4 7 7 7 5
27 27 29 30 32 33 32 32 29 29 16 11 12 11 11 10 12 9 6 5 6 8 11 5 6 17 1 6 7 20 15 12 10 15 5 6 8 6 4 2 2 4 6 6 2 1 4
27 26 28 29 32 34 34 31 27 23 18 14 11 16 11 7 4 5 4 3 11 14 15 6 4 12 3 5 12 20 16 15 13 12 14 10 11 6 4 2 4 4 3 5 2 1 2
26 27 27 28 31 33 35 30 28 23 20 17 13 20 19 12 3 1 8 7 5 3 11 19 9 10 5 10 11 13 16 10 15 11 8 9 5 3 2 3 4 5 2 2 7 1 3
25 26 26 27 30 32 35 33 29 24 21 20 17 15 19 14 12 10 10 19 20 28 24 17 8 11 1 4 9 11 15 14 8 7 4 5 3 3 1 3 1 3 4 5 6 5 2
24 25 23 24 26 29 32 33 33 27 22 20 19 18 18 8 9 8 12 10 3 6 8 3 6 10 10 10 15 8 10 12 4 4 3 2 5 3 6 4 3 3 8 12 13 10 8
23 23 23 22 22 24 26 29 30 30 29 25 22 20 19 21 11 10 10 5 4 7 9 17 20 18 16 9 7 2 4 4 2 3 3 3 1 4 4 3 4 6 8 9 11 4 3
21 22 21 20 20 22 23 25 27 29 28 26 21 18 13 13 19 27 21 12 10 6 5 8 9 9 3 4 5 5 2 2 3 2 2 3 2 4 4 3 4 5 6 6 10 13 7
20 21 20 19 18 20 22 22 24 27 29 28 23 19 12 3 7 7 6 4 5 5 4 8 5 6 4 2 5 2 2 2 1 3 3 3 4 3 3 4 6 4 7 11 12 7 4
20 18 20 19 18 17 20 21 21 23 24 25 26 16 21 14 8 5 4 3 5 2 6 9 5 3 6 5 7 3 2 4 2 1 4 5 2 1 2 4 6 7 2 6 9 13 10
18 17 18 19 18 17 17 19 19 19 19 20 21 21 14 11 13 13 7 5 2 6 6 4 5 3 3 5 2 2 2 4 1 2 1 6 2 2 5 4 6 5 7 8 4 3 3
17 16 13 18 18 19 17 16 15 14 15 17 14 15 20 18 8 14 9 2 5 6 1 3 2 4 2 3 3 2 1 2 1 4 3 5 2 3 3 3 1 2 4 4 5 1 4
16 16 15 16 19 20 19 17 15 13 13 15 13 9 18 20 14 7 3 4 10 5 4 2 1 0 4 2 2 1 1 2 4 1 1 3 6 5 4 5 2 2 1 1 3 2 5
14 15 16 14 17 19 21 20 16 15 14 14 12 6 13 24 12 4 4 8 3 1 1 3 3 3 3 2 2 1 3 2 3 8 4 2 4 2 4 3 3 2 3 1 3 3 3
16 14 15 16 16 19 20 21 17 17 16 13 6 5 13 22 11 8 5 8 4 3 2 2 3 0 2 0 1 1 1 2 1 4 3 1 5 3 0 1 4 5 1 2 1 3 3
20 14 15 15 15 19 20 21 17 17 18 10 5 4 21 16 8 7 6 5 3 3 1 2 1 1 2 2 2 2 2 4 3 2 2 2 0 5 1 5 4 2 2 4 2 1 2
20 18 15 15 13 17 19 20 18 16 18 8 4 4 23 13 5 2 3 2 4 4 0 1 1 2 2 3 1 1 2 3 4 3 2 4 2 4 7 1 2 4 4 3 2 2 1
20 20 17 15 11 12 16 20 16 16 20 6 3 2 10 8 4 3 3 1 3 5 5 5 4 4 3 2 2 3 3 4 5 4 3 2 1 4 4 3 3 1 2 3 1 1 2
19 21 19 16 15 12 12 17 16 12 17 6 3 3 4 4 2 3 3 4 5 5 1 3 4 1 4 5 3 2 5 2 4 4 5 2 2 3 4 5 2 6 7 2 3 1 3
18 19 20 17 16 14 13 13 11 10 12 6 3 1 3 2 4 3 0 2 4 6 4 7 4 5 2 5 6 5 4 5 2 2 2 2 3 1 5 6 3 4 5 2 3 3 2
18 18 20 17 17 16 12 9 6 7 10 4 3 4 1 2 1 3 5 4 3 4 2 4 4 6 5 4 2 4 4 3 2 5 2 2 2 2 4 1 4 4 3 3 3 2 6
19 17 18 18 18 16 9 5 5 3 7 4 3 3 2 2 3 3 1 1 2 2 1 3 2 1 3 2 5 7 5 5 5 2 3 2 2 4 5 6 7 5 4 2 2 2 6
18 17 16 16 16 16 10 5 4 3 3 2 1 3 3 2 1 4 5 3 2 2 2 3 3 3 3 4 2 0 3 6 6 6 3 1 2 2 4 3 2 5 2 2 4 5 8
17 17 16 14 15 16 4 12 6 3 2 2 3 2 3 1 1 2 4 4 3 3 4 3 3 4 1 2 3 4 4 3 1 2 2 2 2 1 1 2 6 2 5 6 6 6 9
17 16 15 12 10 4 9 12 8 3 2 3 4 3 3 4 5 2 3 3 3 3 3 4 2 4 3 2 2 2 3 2 3 8 2 3 3 3 0 0 5 4 2 3 3 5 5
17 17 15 10 7 4 9 11 7 3 2 2 2 0 3 1 3 5 4 4 5 1 2 3 3 1 2 2 1 2 3 2 2 3 3 2 1 3 2 3 8 5 2 1 4 6 2
18 19 16 13 9 9 10 10 8 5 3 3 2 1 0 2 4 7 5 5 2 3 4 2 2 1 2 2 3 3 3 4 2 5 5 6 5 4 3 2 7 6 4 6 5 3 3
20 20 18 17 13 13 15 14 11 8 6 3 2 1 3 2 4 6 11 12 6 5 3 1 2 1 3 3 1 2 3 2 4 4 1 3 6 4 8 6 6 7 8 5 4 4 4
Wind_Direction
360 357 359 356 356 352 350 349 348 344 340 328 299 289 292 306 307 297 283 263 248 250 280 300 297 157 135 90 303 55 148 133 133 127 106 96 64 94 95 90 25 77 322 320 297 293 270
1 3 1 358 358 357 357 353 349 347 337 333 343 341 327 310 312 306 285 263 245 255 279 296 278 154 111 112 288 134 139 128 122 113 94 71 130 114 95 79 74 270 262 270 263 265 257
5 6 3 2 3 0 356 354 352 352 357 359 12 359 335 306 305 330 297 242 248 262 274 256 202 155 27 118 125 132 132 118 113 117 89 78 106 78 125 94 307 323 324 321 297 293 251
6 8 6 6 7 3 360 3 5 8 22 29 28 2 339 305 302 34 65 298 271 266 264 246 182 139 98 68 131 109 104 96 105 105 96 96 105 103 62 167 27 24 31 356 317 158 285
7 10 11 11 11 9 8 20 19 29 35 32 20 27 28 30 107 165 30 36 343 270 147 126 109 109 113 116 98 141 138 117 104 96 81 110 78 102 93 62 16 19 326 334 317 319 277
9 11 14 15 18 20 26 27 31 38 34 32 34 27 35 60 75 77 84 94 92 90 88 106 92 83 203 122 135 121 129 109 90 86 50 39 54 100 82 67 211 355 349 318 282 300 308
11 12 14 18 24 28 30 31 36 36 28 18 19 22 29 37 78 73 130 99 32 44 68 174 165 100 116 104 113 89 123 85 68 44 90 26 72 183 213 203 145 285 285 285 279 264 279
15 12 15 17 25 36 33 31 32 38 38 28 21 24 40 65 79 70 75 75 44 99 72 56 70 82 90 94 108 1 124 86 100 108 123 49 242 218 198 197 228 263 269 271 280 267 217
14 13 13 14 26 37 35 31 26 29 30 24 17 27 50 70 66 76 66 73 92 72 79 37 55 76 83 86 93 151 106 118 120 110 147 157 205 105 160 210 216 229 240 269 275 295 249
9 13 9 9 19 37 38 29 26 27 31 30 27 31 30 97 40 21 46 9 19 356 86 16 48 29 0 80 59 78 83 113 73 184 177 237 247 222 192 233 183 287 235 253 282 317 288
5 11 5 4 8 25 36 30 23 24 29 37 39 33 42 75 108 45 333 327 335 339 70 356 23 296 307 78 137 357 26 22 99 81 91 260 265 269 275 227 169 245 323 267 269 268 285
3 6 4 3 0 4 23 29 27 22 27 31 38 37 46 32 40 8 343 323 358 43 46 10 5 360 47 42 61 81 58 52 126 2 210 243 296 249 215 248 213 280 304 291 242 246 253
0 0 11 356 359 0 3 19 25 19 10 11 17 41 33 28 332 336 334 35 50 62 219 356 15 357 49 62 61 61 67 5 153 57 356 324 234 258 186 279 301 169 279 315 356 295 240
359 357 360 356 353 352 351 355 8 12 1 359 360 27 27 10 352 326 333 46 64 25 61 97 141 120 75 102 55 152 128 316 220 128 143 353 329 188 174 209 251 297 216 266 283 291 293
354 355 354 355 350 347 344 346 354 359 356 359 347 346 11 12 11 30 65 52 89 107 192 106 7 58 19 349 142 182 221 236 219 190 174 302 277 86 196 181 151 100 220 181 272 234 263
345 343 351 348 347 345 341 339 346 350 346 350 9 340 6 1 23 57 62 81 60 26 28 69 24 65 87 32 106 245 239 182 211 173 178 317 295 217 239 143 239 227 329 230 215 304 298
344 341 343 345 351 345 343 336 339 354 348 352 44 41 356 4 42 46 58 52 4 333 269 193 298 123 97 41 34 22 296 303 166 195 161 15 347 305 20 204 182 183 237 211 285 252 302
342 338 336 343 350 349 344 335 333 353 351 350 72 41 348 14 54 37 49 348 322 310 288 275 244 250 129 172 39 245 299 243 188 161 241 210 251 268 230 194 197 165 209 228 187 192 301
337 339 333 337 340 343 339 330 334 344 359 352 85 263 360 13 82 358 328 360 217 7 357 2 341 32 4 162 333 225 228 272 169 162 223 185 280 316 359 25 12 301 233 241 228 21 224
332 336 333 334 336 329 335 328 324 344 352 358 79 48 346 49 7 101 25 3 360 355 69 351 337 26 39 25 15 349 354 347 181 217 246 163 218 177 184 240 302 303 319 266 167 123 152
323 331 332 331 330 331 324 326 320 335 357 337 41 132 177 351 18 25 32 355 9 13 358 16 37 46 326 359 352 10 344 329 194 329 141 154 272 157 254 254 272 266 304 328 139 200 155
312 325 329 327 329 323 321 330 311 323 341 55 113 132 36 134 327 59 349 356 40 323 30 354 52 325 21 89 153 293 3 29 349 323 39 1 280 340 280 262 312 291 310 43 74 96 70
302 317 326 323 327 323 316 311 277 305 347 31 98 67 68 280 124 109 205 270 321 271 186 153 222 329 6 281 226 230 224 260 245 323 308 22 22 26 287 345 332 320 219 191 256 175 148
293 307 320 318 325 318 294 231 228 252 297 317 124 112 88 261 254 175 177 192 239 291 271 264 184 178 217 302 277 324 230 244 239 259 204 299 107 149 250 347 9 238 206 207 204 220 209
283 297 310 314 326 334 230 165 183 123 66 104 142 114 121 210 240 278 198 206 194 260 235 255 258 220 356 355 33 8 346 349 246 223 226 190 128 293 222 237 282 232 203 179 182 262 203
275 284 299 306 322 354 146 160 165 146 64 95 93 76 105 123 237 147 189 205 225 205 312 251 301 322 7 56 72 142 246 233 299 327 135 108 87 133 226 266 241 246 239 193 131 291 217
267 272 283 286 284 255 187 189 190 206 341 37 56 91 116 153 247 152 190 189 158 161 225 292 299 301 87 73 87 175 250 190 245 253 236 301 354 203 224 259 288 248 237 150 117 236 335
260 263 271 274 244 229 222 218 221 227 276 329 336 309 102 183 264 198 195 163 160 161 166 243 44 307 31 115 152 209 201 231 209 228 196 189 164 202 151 229 280 169 103 175 228 296 257
257 254 259 265 248 230 225 223 232 239 254 240 285 253 240 191 256 247 241 234 208 161 154 135 206 239 198 89 230 124 221 185 191 268 102 243 192 186 188 217 217 200 205 204 181 224 282